Location: Kott?ru
(16.6209°N, 80.6208°E)
Time: 23:49:24
(UTC+00:00)

Tsikada Rocket - Visible Passes

Search period start: 23 January 2021 00:00
Search period end: 02 February 2021 00:00
Orbit: 957 x 1010 km, 82.9° (Epoch: 23 January)

Date Brightness Start Highest point End Pass type
(mag) Time Alt. Az. Time Alt. Az. Time Alt. Az.
23 Jan 5.3 22:31:14 33° SE 22:31:14 33° SE 22:34:42 10° SSE visible
24 Jan 5.3 22:59:58 26° SSW 22:59:58 26° SSW 23:02:34 10° S visible
25 Jan 5.9 23:28:39 13° SW 23:28:39 13° SW 23:29:20 10° SSW visible
26 Jan 6.4 22:12:21 11° SSE 22:12:21 11° SSE 22:12:39 10° SSE visible
